星链-34914 (STARLINK-34914)

导读

STARLINK-34914是美国SpaceX公司星链星座的第二代卫星,于2025年8月14日在美国发射升空。作为星链Gen2批次的组网卫星,它运行于近地轨道,配备增强型相控阵天线与激光星间链路,单星容量超100 Gbps,可支持全球高速低时延互联网接入,助力星链完成全球覆盖组网,同时服务民用宽带与军事通信等多场景。

基本信息
目录编号:
65203
目录名称:
STARLINK-34914
国际标识:
2025-176F
轨道中心:
EARTH
卫星名称:
星链-34914
卫星全名:
星链-34914 (STARLINK-34914)
卫星状态:
在轨 (已飞行386 天)
发射日期:
2025-08-14 UTC
国别 :
美国 (US)
星等 :
--
轨道信息
数据来源 国际轨道数据 AOE轨道数据
星历时间 2026-09-03T17:50:04+0800
19小时前
查看轨道信息
2026-09-03T02:00:00+0800
1天前
查看轨道信息
半长轴 6840.82km 6840.822km
偏心率 0.0001378 0.0001237
轨道倾角 53.160° 53.160°
近地点辐角 68.192° 49.372°
升交点赤经 43.449° 46.532°
平近点角 291.923° 264.270°
近地点 461.74km 461.838km
远地点 463.626km 463.532km
周期 93.847分钟 93.847分钟
每日圈数 15.344071 15.344062
详细信息
固有亮度:
5
最大亮度:
2.5
卫星平台:
Starlink V1.0
覆盖范围:
全球
运营商:
太空探索技术公司
运营商所在国:
美国
制造商(研发单位):
太空探索技术公司
制造商所在国:
美国
使用方式:
暂无
卫星简介
Starlink 计划是 SpaceX 推出的全球卫星互联网项目,通过发射低轨道卫星,为全球尤其是偏远地区提供高速、低延迟的互联网服务。自 2019 年起,Starlink 已部署数千颗卫星,旨在缩小全球数字鸿沟,推动互联网普及。该项目还为军事、航空等行业提供通信支持,带来广泛经济效益。
2D轨道图
3D轨道图
轨道高度分析图
轨道倾角分析图
轨道综合分析图
查看轨道综合分析图
交会数据列表
事件ID 空间交会对象 最接近时刻(TCA) 交会距离 交会风险概率(CRP) 交会风险指数(CRI) 操作
CDM_260905-104406-126106-520321
2026-09-05T
10:44:18+0000
0.429 km
远距离
1.453006E-4 高风险 0.78
CDM_260904-204005-238006-520322
2026-09-04T
20:40:31+0000
0.574 km
远距离
7.223141E-5 中风险 0.72
CDM_260905-034205-238006-520321
2026-09-05T
03:42:34+0000
0.709 km
远距离
3.846548E-5 中风险 0.67
CDM_260904-220706-520306-540121
2026-09-04T
22:07:11+0000
1.615 km
极远距离
4.156499E-6 低风险 0.47
CDM_260903-123404-793706-520325
OBJECT F (47937)
2026-09-03T
12:34:47+0000
2.731 km
极远距离
1.354818E-6 低风险 0.38
CDM_260904-225406-520306-540121
2026-09-04T
22:54:05+0000
2.785 km
极远距离
1.196873E-6 低风险 0.37
CDM_260904-190605-238006-520322
2026-09-04T
19:06:43+0000
2.366 km
极远距离
1.002325E-6 低风险 0.35
CDM_260905-020805-238006-520321
2026-09-05T
02:08:47+0000
2.435 km
极远距离
9.516575E-7 极低风险 0.35
CDM_260905-121806-126106-520321
2026-09-05T
12:18:06+0000
2.991 km
极远距离
6.883611E-7 极低风险 0.32